Time,TemperatureF,DewpointF,PressureIn,WindDirection,WindDirectionDegrees,WindSpeedMPH,WindSpeedGustMPH,Humidity,HourlyPrecipIn,Conditions,Clouds,dailyrainin,SoftwareType,DateUTC
2013-09-22 00:00:00,58.0,-99.9,-100.00,North,-999,-999.0,-999.0,-999,0.00,,,0.04,,2013-09-22 07:00:00,
2013-09-22 00:42:00,58.0,-99.9,-100.00,North,-999,-999.0,-999.0,-999,0.00,,,0.04,,2013-09-22 07:42:00,
2013-09-22 00:52:00,58.0,-99.9,-100.00,North,-999,-999.0,-999.0,-999,0.00,,,0.04,,2013-09-22 07:52:00,
2013-09-22 01:00:00,58.0,-99.9,-100.00,North,-999,-999.0,-999.0,-999,0.00,,,0.04,,2013-09-22 08:00:00,
2013-09-22 01:42:00,58.0,-99.9,-100.00,North,-999,-999.0,-999.0,-999,0.00,,,0.04,,2013-09-22 08:42:00,
2013-09-22 01:52:00,58.0,-99.9,-100.00,North,-999,-999.0,-999.0,-999,0.00,,,0.04,,2013-09-22 08:52:00,
2013-09-22 02:00:00,58.0,-99.9,-100.00,North,-999,-999.0,-999.0,-999,0.00,,,0.04,,2013-09-22 09:00:00,
2013-09-22 02:43:00,58.0,-99.9,-100.00,North,-999,-999.0,-999.0,-999,0.00,,,0.04,,2013-09-22 09:43:00,
2013-09-22 02:54:00,58.0,-99.9,-100.00,North,-999,-999.0,-999.0,-999,0.00,,,0.04,,2013-09-22 09:54:00,
2013-09-22 03:44:00,57.0,-99.9,-100.00,North,-999,-999.0,-999.0,-999,0.01,,,0.05,,2013-09-22 10:44:00,
2013-09-22 03:53:00,57.0,-99.9,-100.00,North,-999,-999.0,-999.0,-999,0.01,,,0.05,,2013-09-22 10:53:00,
2013-09-22 04:00:00,58.0,-99.9,-100.00,North,-999,-999.0,-999.0,-999,0.00,,,0.05,,2013-09-22 11:00:00,
2013-09-22 04:42:00,58.0,-99.9,-100.00,North,-999,-999.0,-999.0,-999,0.00,,,0.05,,2013-09-22 11:42:00,
2013-09-22 04:52:00,58.0,-99.9,-100.00,North,-999,-999.0,-999.0,-999,0.00,,,0.05,,2013-09-22 11:52:00,
2013-09-22 05:00:00,57.0,-99.9,-100.00,North,-999,-999.0,-999.0,-999,0.00,,,0.05,,2013-09-22 12:00:00,
2013-09-22 05:42:00,57.0,-99.9,-100.00,North,-999,-999.0,-999.0,-999,0.00,,,0.05,,2013-09-22 12:42:00,
2013-09-22 05:52:00,57.0,-99.9,-100.00,North,-999,-999.0,-999.0,-999,0.00,,,0.05,,2013-09-22 12:52:00,
2013-09-22 06:00:00,56.0,-99.9,-100.00,North,-999,-999.0,-999.0,-999,0.01,,,0.06,,2013-09-22 13:00:00,
2013-09-22 06:42:00,56.0,-99.9,-100.00,North,-999,-999.0,-999.0,-999,0.01,,,0.06,,2013-09-22 13:42:00,
2013-09-22 06:52:00,56.0,-99.9,-100.00,North,-999,-999.0,-999.0,-999,0.01,,,0.06,,2013-09-22 13:52:00,
2013-09-22 07:00:00,56.0,-99.9,-100.00,North,-999,-999.0,-999.0,-999,0.00,,,0.06,,2013-09-22 14:00:00,
2013-09-22 07:42:00,56.0,-99.9,-100.00,North,-999,-999.0,-999.0,-999,0.00,,,0.06,,2013-09-22 14:42:00,
2013-09-22 07:53:00,56.0,-99.9,-100.00,North,-999,-999.0,-999.0,-999,0.00,,,0.06,,2013-09-22 14:53:00,
2013-09-22 08:00:00,55.0,-99.9,-100.00,North,-999,-999.0,-999.0,-999,0.01,,,0.07,,2013-09-22 15:00:00,
2013-09-22 08:44:00,55.0,-99.9,-100.00,North,-999,-999.0,-999.0,-999,0.01,,,0.07,,2013-09-22 15:44:00,
2013-09-22 08:55:00,55.0,-99.9,-100.00,North,-999,-999.0,-999.0,-999,0.01,,,0.07,,2013-09-22 15:55:00,
2013-09-22 09:00:00,56.0,-99.9,-100.00,North,-999,-999.0,-999.0,-999,0.01,,,0.08,,2013-09-22 16:00:00,
2013-09-22 09:43:00,56.0,-99.9,-100.00,North,-999,-999.0,-999.0,-999,0.01,,,0.08,,2013-09-22 16:43:00,
2013-09-22 09:54:00,56.0,-99.9,-100.00,North,-999,-999.0,-999.0,-999,0.01,,,0.08,,2013-09-22 16:54:00,
2013-09-22 10:00:00,57.0,-99.9,-100.00,North,-999,-999.0,-999.0,-999,0.01,,,0.09,,2013-09-22 17:00:00,
2013-09-22 10:43:00,57.0,-99.9,-100.00,North,-999,-999.0,-999.0,-999,0.01,,,0.09,,2013-09-22 17:43:00,
2013-09-22 10:53:00,57.0,-99.9,-100.00,North,-999,-999.0,-999.0,-999,0.01,,,0.09,,2013-09-22 17:53:00,
2013-09-22 11:00:00,57.0,-99.9,-100.00,North,-999,-999.0,-999.0,-999,0.01,,,0.10,,2013-09-22 18:00:00,
2013-09-22 11:42:00,57.0,-99.9,-100.00,North,-999,-999.0,-999.0,-999,0.01,,,0.10,,2013-09-22 18:42:00,
2013-09-22 11:53:00,57.0,-99.9,-100.00,North,-999,-999.0,-999.0,-999,0.01,,,0.10,,2013-09-22 18:53:00,
2013-09-22 12:00:00,58.0,-99.9,-100.00,North,-999,-999.0,-999.0,-999,0.01,,,0.11,,2013-09-22 19:00:00,
2013-09-22 12:42:00,58.0,-99.9,-100.00,North,-999,-999.0,-999.0,-999,0.01,,,0.11,,2013-09-22 19:42:00,
2013-09-22 12:53:00,58.0,-99.9,-100.00,North,-999,-999.0,-999.0,-999,0.01,,,0.11,,2013-09-22 19:53:00,
2013-09-22 13:00:00,58.0,-99.9,-100.00,North,-999,-999.0,-999.0,-999,0.01,,,0.12,,2013-09-22 20:00:00,
2013-09-22 13:42:00,58.0,-99.9,-100.00,North,-999,-999.0,-999.0,-999,0.01,,,0.12,,2013-09-22 20:42:00,
2013-09-22 13:52:00,58.0,-99.9,-100.00,North,-999,-999.0,-999.0,-999,0.01,,,0.12,,2013-09-22 20:52:00,
2013-09-22 14:00:00,56.0,-99.9,-100.00,North,-999,-999.0,-999.0,-999,0.19,,,0.31,,2013-09-22 21:00:00,
2013-09-22 14:45:00,56.0,-99.9,-100.00,North,-999,-999.0,-999.0,-999,0.19,,,0.31,,2013-09-22 21:45:00,
2013-09-22 14:54:00,56.0,-99.9,-100.00,North,-999,-999.0,-999.0,-999,0.19,,,0.31,,2013-09-22 21:54:00,
2013-09-22 15:00:00,56.0,-99.9,-100.00,North,-999,-999.0,-999.0,-999,0.17,,,0.48,,2013-09-22 22:00:00,
2013-09-22 15:43:00,56.0,-99.9,-100.00,North,-999,-999.0,-999.0,-999,0.17,,,0.48,,2013-09-22 22:43:00,
2013-09-22 15:54:00,56.0,-99.9,-100.00,North,-999,-999.0,-999.0,-999,0.17,,,0.48,,2013-09-22 22:54:00,
2013-09-22 16:00:00,56.0,-99.9,-100.00,North,-999,-999.0,-999.0,-999,0.13,,,0.60,,2013-09-22 23:00:00,
2013-09-22 16:43:00,56.0,-99.9,-100.00,North,-999,-999.0,-999.0,-999,0.13,,,0.60,,2013-09-22 23:43:00,
2013-09-22 16:52:00,56.0,-99.9,-100.00,North,-999,-999.0,-999.0,-999,0.13,,,0.60,,2013-09-22 23:52:00,
2013-09-22 17:00:00,57.0,-99.9,-100.00,North,-999,-999.0,-999.0,-999,0.07,,,0.65,,2013-09-23 00:00:00,
2013-09-22 17:42:00,57.0,-99.9,-100.00,North,-999,-999.0,-999.0,-999,0.07,,,0.65,,2013-09-23 00:42:00,
2013-09-22 17:53:00,57.0,-99.9,-100.00,North,-999,-999.0,-999.0,-999,0.07,,,0.65,,2013-09-23 00:53:00,
2013-09-22 18:00:00,56.0,-99.9,-100.00,North,-999,-999.0,-999.0,-999,0.02,,,0.67,,2013-09-23 01:00:00,
2013-09-22 18:43:00,56.0,-99.9,-100.00,North,-999,-999.0,-999.0,-999,0.02,,,0.67,,2013-09-23 01:43:00,
2013-09-22 18:53:00,56.0,-99.9,-100.00,North,-999,-999.0,-999.0,-999,0.02,,,0.67,,2013-09-23 01:53:00,
2013-09-22 19:00:00,55.0,-99.9,-100.00,North,-999,-999.0,-999.0,-999,0.00,,,0.67,,2013-09-23 02:00:00,
2013-09-22 19:42:00,55.0,-99.9,-100.00,North,-999,-999.0,-999.0,-999,0.00,,,0.67,,2013-09-23 02:42:00,
2013-09-22 19:52:00,55.0,-99.9,-100.00,North,-999,-999.0,-999.0,-999,0.00,,,0.67,,2013-09-23 02:52:00,
2013-09-22 20:00:00,55.0,-99.9,-100.00,North,-999,-999.0,-999.0,-999,0.00,,,0.66,,2013-09-23 03:00:00,
2013-09-22 20:45:00,55.0,-99.9,-100.00,North,-999,-999.0,-999.0,-999,0.00,,,0.66,,2013-09-23 03:45:00,
2013-09-22 20:54:00,55.0,-99.9,-100.00,North,-999,-999.0,-999.0,-999,0.00,,,0.66,,2013-09-23 03:54:00,
2013-09-22 21:00:00,55.0,-99.9,-100.00,North,-999,-999.0,-999.0,-999,0.01,,,0.67,,2013-09-23 04:00:00,
2013-09-22 21:44:00,55.0,-99.9,-100.00,North,-999,-999.0,-999.0,-999,0.01,,,0.67,,2013-09-23 04:44:00,
2013-09-22 21:54:00,55.0,-99.9,-100.00,North,-999,-999.0,-999.0,-999,0.01,,,0.67,,2013-09-23 04:54:00,
2013-09-22 22:00:00,55.0,-99.9,-100.00,North,-999,-999.0,-999.0,-999,0.00,,,0.67,,2013-09-23 05:00:00,
2013-09-22 22:43:00,55.0,-99.9,-100.00,North,-999,-999.0,-999.0,-999,0.00,,,0.67,,2013-09-23 05:43:00,
2013-09-22 22:53:00,55.0,-99.9,-100.00,North,-999,-999.0,-999.0,-999,0.00,,,0.67,,2013-09-23 05:53:00,
2013-09-22 23:00:00,55.0,-99.9,-100.00,North,-999,-999.0,-999.0,-999,0.01,,,0.68,,2013-09-23 06:00:00,
2013-09-22 23:42:00,55.0,-99.9,-100.00,North,-999,-999.0,-999.0,-999,0.01,,,0.68,,2013-09-23 06:42:00,
2013-09-22 23:52:00,55.0,-99.9,-100.00,North,-999,-999.0,-999.0,-999,0.01,,,0.68,,2013-09-23 06:52:00,